Regional Weather Roundup
Issued by NWS

Home | Current Version | Previous Version | Text Only | Print | Product List | Glossary On
Versions: 1 2 3 4 5 6 7 8 9 10 11 12 13 14 15 16 17 18 19 20 21 22 23 24 25 26 27 28 29 30 31 32 33 34 35 36 37 38 39 40 41 42 43 44 45 46 47 48 49 50
000
ASUS43 KDTX 162210
RWRMI
MICHIGAN HOURLY REGIONAL WEATHER ROUNDUP
NATIONAL WEATHER SERVICE DETROIT/PONTIAC MI
600 PM EDT WED AUG 16 2017

NOTE: "FAIR" INDICATES FEW OR NO CLOUDS BELOW 12,000 FEET WITH NO
SIGNIFICANT WEATHER AND/OR OBSTRUCTION TO VISIBILITY.

MIZ047>049-052>055-059>063-066>070-074>076-081>083-162300-
SOUTHEAST LOWER MICHIGAN

CITY           SKY/WX    TMP DP  RH WIND       PRES   REMARKS
ADRIAN         SUNNY     84  64  50 E13       29.99F
ALMA           MOSUNNY   82  60  47 SE7       29.98F
ANN ARBOR      SUNNY     82  62  50 E9        29.99F
BAD AXE        MOSUNNY   75  58  54 E5        30.04F
CARO           SUNNY     80  61  52 E8        30.00F
DETROIT CITY   SUNNY     80  60  50 SE12      30.01F
DETROIT        MOSUNNY   82  60  47 S9        30.01F
FLINT          SUNNY     81  61  50 S9        29.99F
GROSSE ILE     SUNNY     80  58  46 SE9       30.00F
HILLSDALE      MOSUNNY   82  63  51 SE6       29.98F
HOWELL         MOSUNNY   84  58  41 SE9       29.99F

CITY           SKY/WX    TMP DP  RH WIND       PRES   REMARKS
JACKSON          N/A    N/A N/A N/A MISG      29.97F
LAMBERTVILLE   SUNNY     79  64  60 E8        29.99F
LANSING        SUNNY     84  61  45 VRB3      29.97F
LAPEER         FAIR      80  60  51 E5        30.02F
MASON          MOSUNNY   84  64  51 SE3       29.97F
MONROE         SUNNY     79  60  51 E10G16    30.00F
MT. CLEMENS    MOSUNNY   79  60  52 SE8       30.01F
PONTIAC        MOSUNNY   81  59  47 SE12      30.00F
PORT HOPE        N/A     71  63  75 E12       30.04S
PORT HURON     SUNNY     79  61  53 NE6       30.02F
TRI CITIES     MOSUNNY   80  68  66 NE10      30.00F
MIDLAND        FAIR      79  65  61 E10       29.99F
TROY           MOSUNNY   81  58  45 E10       30.03F
SAGINAW HB     PTSUNNY   81  61  50 SE6       29.99F
$$
MIZ043>046-050>051-056>058-064>065-071>073-077>080-162300-
SOUTHWEST LOWER MICHIGAN

CITY           SKY/WX    TMP DP  RH WIND       PRES   REMARKS
BATTLE CREEK   MOSUNNY   85  63  47 S10       29.96F
BENTON HARBOR  PTSUNNY   87  66  49 S6        29.92F
BIG RAPIDS     SUNNY     80  57  46 S7        29.96F
COLDWATER      SUNNY     85  60  42 SE5       29.96F
FREMONT        FAIR      85  60  43 SE5       29.95S
HOLLAND        MOSUNNY   85  65  51 SE6       29.94F
GRAND RAPIDS   MOSUNNY   86  62  44 S6        29.94F
IONIA          FAIR      84  60  44 S6        29.95F
KALAMAZOO      MOSUNNY   87  62  43 SE8       29.95F
LUDINGTON      SUNNY     78  61  54 NW3       29.95S
MARSHALL       SUNNY     85  61  44 SE5       29.96F
MOUNT PLEASANT SUNNY     84  61  46 SE10      29.98F
MUSKEGON       MOSUNNY   86  61  42 CALM      29.94F
SOUTH HAVEN    MOSUNNY   86  65  48 SE5       29.92F
$$
MIZ016>042-162300-
NORTHERN LOWER MICHIGAN

CITY           SKY/WX    TMP DP  RH WIND       PRES   REMARKS
ALPENA         SUNNY     71  64  78 E10       30.04F
BEAVER ISLAND  SUNNY     73  64  72 E10G18    29.99F
BELLAIRE       MOSUNNY   82  56  40 S9        29.96F
CADILLAC       MOSUNNY   82  61  49 SE9       29.98F
CHARLEVOIX     SUNNY     79  62  56 NE8       29.99F
FRANKFORT      SUNNY     78  62  58 W3        29.96F
GAYLORD        PTSUNNY   75  61  61 SE9       30.01F
GRAYLING       MOSUNNY   79  57  47 S7G16     30.01F
HARBOR SPRINGS MOSUNNY   78  61  54 E10G16    29.97F
HOUGHTON LAKE  MOSUNNY   77  61  57 SE13      30.01F
OSCODA         SUNNY     72  62  71 E9        30.04F
PELLSTON       MOSUNNY   77  62  59 E9        29.99F
ROGERS CITY    SUNNY     73  63  70 E9        30.04F
TRAVERSE CITY  MOSUNNY   84  60  44 SE8       29.93F
$$
MIZ007>008-015-162300-
EASTERN UPPER MICHIGAN

CITY           SKY/WX    TMP DP  RH WIND       PRES   REMARKS
KINROSS        CLOUDY    73  60  63 E10       30.03F
MACKINAC ISLAN SUNNY     68  63  84 E13G20    30.02F
NEWBERRY       PTSUNNY   73  62  68 E7        29.99F
S. S. MARIE    SUNNY     73  60  63 SE9       30.03F
MUNISING         N/A     70  65  84 NE10      29.97F
$$
MIZ004>006-011>014-085-162300-
CENTRAL UPPER MICHIGAN

CITY           SKY/WX    TMP DP  RH WIND       PRES   REMARKS
MANISTIQUE     MOSUNNY   71  62  73 SE14      29.98F
ESCANABA       SUNNY     71  64  78 SE9       29.97F
MENOMINEE      SUNNY     71  62  73 E9        29.96F
SAWYER-GWINN   MOSUNNY   73  57  56 E6        29.98F
$$
MIZ001>003-009>011-084-162300-
WESTERN UPPER MICHIGAN

CITY           SKY/WX    TMP DP  RH WIND       PRES   REMARKS
IRON MOUNTAIN  PTSUNNY   75  55  49 S9        29.95F
HOUGHTON       CLOUDY    62  56  80 E9        29.98S
COPPER HARBOR    N/A     65  57  75 S7        29.98S
IRONWOOD       PTSUNNY   76  58  53 E9        29.91F
$$

ABBREVIATIONS USED IN REMARKS
   TC - TEMPERATURE IN CELSIUS
  WCI - WIND CHILL INDEX
   HX - HEAT INDEX
  VSB - VISIBILITY




USA.gov is the U.S. government's official web portal to all federal, state and local government web resources and services.